| time (UTC) | temp C | wind direction | speed KPH | gust KPH | rain 1hr cm | rain 24hr cm | rain mn cm | humidity % | barometer mb |
| 20260504090137 | 17 | 175 | 0.0 | 6.4 | 0.00 | 0.00 | 0.00 | 70 | 1024.9 |
| 20260504081553 | 18 | 217 | 3.2 | 11.3 | 0.00 | 0.00 | 0.00 | 66 | 1025.0 |
| 20260504050107 | 20 | 0 | 0.0 | 4.8 | 0.00 | 0.00 | 0.00 | 56 | 1025.6 |
| 20260504044602 | 21 | 0 | 0.0 | 9.7 | 0.00 | 0.00 | 0.00 | 56 | 1025.8 |
| 20260504043058 | 20 | 163 | 1.6 | 6.4 | 0.00 | 0.00 | 0.00 | 58 | 1025.9 |
| 20260504041554 | 20 | 93 | 1.6 | 4.8 | 0.00 | 0.00 | 0.00 | 59 | 1026.2 |
| 20260504040106 | 20 | 75 | 0.0 | 9.7 | 0.00 | 0.00 | 0.00 | 59 | 1026.5 |
| 20260504034600 | 19 | 0 | 0.0 | 1.6 | 0.00 | 0.00 | 0.00 | 60 | 1026.8 |
| 20260504033126 | 18 | 0 | 0.0 | 4.8 | 0.00 | 0.00 | 0.00 | 61 | 1027.0 |
| 20260504031558 | 18 | 75 | 0.0 | 4.8 | 0.00 | 0.00 | 0.00 | 64 | 1027.1 |
| 20260504030101 | 18 | 0 | 0.0 | 3.2 | 0.00 | 0.00 | 0.00 | 66 | 1027.3 |
| 20260504024559 | 17 | 78 | 0.0 | 4.8 | 0.00 | 0.00 | 0.00 | 66 | 1027.5 |
| 20260504023102 | 17 | 0 | 0.0 | 4.8 | 0.00 | 0.00 | 0.00 | 68 | 1027.4 |
| 20260504021556 | 17 | 114 | 1.6 | 6.4 | 0.00 | 0.00 | 0.00 | 70 | 1027.3 |
| 20260504020100 | 17 | 0 | 1.6 | 9.7 | 0.00 | 0.00 | 0.00 | 69 | 1027.4 |
| 20260504014558 | 16 | 0 | 1.6 | 8.0 | 0.00 | 0.00 | 0.00 | 70 | 1027.5 |
| 20260504013106 | 16 | 96 | 1.6 | 8.0 | 0.00 | 0.00 | 0.00 | 73 | 1027.6 |
| 20260504011557 | 15 | 0 | 0.0 | 6.4 | 0.00 | 0.00 | 0.00 | 76 | 1027.8 |
| 20260504010111 | 15 | 79 | 0.0 | 6.4 | 0.00 | 0.00 | 0.00 | 78 | 1027.9 |
| 20260504004625 | 14 | 0 | 0.0 | 9.7 | 0.00 | 0.00 | 0.00 | 81 | 1027.8 |
| 20260504003057 | 13 | 86 | 0.0 | 4.8 | 0.00 | 0.00 | 0.00 | 84 | 1027.8 |
| 20260504001612 | 12 | 116 | 0.0 | 4.8 | 0.00 | 0.00 | 0.00 | 87 | 1027.6 |
| 20260504000103 | 11 | 0 | 0.0 | 3.2 | 0.00 | 0.00 | 0.00 | 88 | 1027.7 |
| 20260503234557 | 11 | 61 | 0.0 | 6.4 | 0.00 | 0.00 | 0.00 | 90 | 1027.5 |
| 20260503233330 | 10 | 90 | 0.0 | 6.4 | 0.00 | 0.00 | 0.00 | 90 | 1027.4 |
| 20260503231559 | 9 | 0 | 0.0 | 1.6 | 0.00 | 0.00 | 0.00 | 90 | 1027.3 |
| 20260503224554 | 9 | 0 | 0.0 | 1.6 | 0.00 | 0.00 | 0.00 | 89 | 1026.9 |
| 20260503223100 | 9 | 0 | 0.0 | 3.2 | 0.00 | 0.00 | 0.00 | 90 | 1026.8 |
| 20260503221554 | 9 | 0 | 0.0 | 3.2 | 0.00 | 0.00 | 0.00 | 90 | 1026.8 |
| 20260503220058 | 8 | 0 | 0.0 | 1.6 | 0.00 | 0.00 | 0.00 | 90 | 1026.8 |
| 20260503214553 | 8 | 0 | 0.0 | 0.0 | 0.00 | 0.00 | 0.00 | 89 | 1026.8 |
| 20260503213107 | 8 | 0 | 0.0 | 0.0 | 0.00 | 0.00 | 0.00 | 89 | 1026.8 |
| 20260503211557 | 8 | 0 | 0.0 | 0.0 | 0.00 | 0.00 | 0.00 | 89 | 1026.6 |
| 20260503210100 | 8 | 0 | 0.0 | 1.6 | 0.00 | 0.00 | 0.00 | 89 | 1026.6 |
| 20260503204600 | 8 | 0 | 0.0 | 0.0 | 0.00 | 0.00 | 0.00 | 88 | 1026.4 |
| 20260503203104 | 9 | 0 | 0.0 | 1.6 | 0.00 | 0.00 | 0.00 | 89 | 1026.5 |
| 20260503201642 | 9 | 81 | 0.0 | 3.2 | 0.00 | 0.00 | 0.00 | 88 | 1026.4 |
| 20260503200101 | 9 | 0 | 0.0 | 3.2 | 0.00 | 0.00 | 0.00 | 89 | 1026.1 |
| 20260503194555 | 9 | 0 | 0.0 | 4.8 | 0.00 | 0.00 | 0.00 | 89 | 1026.4 |
| 20260503193101 | 8 | 117 | 0.0 | 1.6 | 0.00 | 0.00 | 0.00 | 89 | 1026.4 |
| 20260503191620 | 8 | 0 | 0.0 | 1.6 | 0.00 | 0.00 | 0.00 | 89 | 1026.4 |
| 20260503190101 | 8 | 0 | 0.0 | 0.0 | 0.00 | 0.00 | 0.00 | 89 | 1026.5 |
| 20260503184559 | 9 | 0 | 0.0 | 0.0 | 0.00 | 0.00 | 0.00 | 89 | 1026.4 |
| 20260503183114 | 8 | 0 | 0.0 | 0.0 | 0.00 | 0.00 | 0.00 | 89 | 1026.3 |
| 20260503181602 | 8 | 0 | 0.0 | 1.6 | 0.00 | 0.00 | 0.00 | 90 | 1026.2 |
| 20260503180058 | 8 | 0 | 0.0 | 0.0 | 0.00 | 0.00 | 0.00 | 89 | 1026.1 |
| 20260503174606 | 8 | 0 | 0.0 | 0.0 | 0.00 | 0.00 | 0.00 | 89 | 1026.1 |
| 20260503173116 | 8 | 0 | 0.0 | 0.0 | 0.00 | 0.00 | 0.00 | 88 | 1026.1 |
| 20260503171554 | 9 | 0 | 0.0 | 0.0 | 0.00 | 0.00 | 0.00 | 88 | 1026.1 |